View from above orbital plane
|
View from above satellite
|
Ground track
|
The orbit data is extracted from the following two-line orbital elements,
1 20580U 90037B 21059.15221198 .00000739 00000-0 33876-4 0 9990
2 20580 28.4723 68.2588 0002573 324.9160 35.1276 15.09568579494727
Epoch (UTC): | 28 February 2021 03:39:11 |
Eccentricity: | 0.0002573 |
inclination: | 28.4723° |
perigee height: | 536 km |
apogee height: | 539 km |
right ascension of ascending node: | 68.2588° |
argument of perigee: | 324.9160° |
revolutions per day: | 15.09568579 |
mean anomaly at epoch: | 35.1276° |
orbit number at epoch: | 49472 |
The dashed part of the orbit path shows where the satellite is in the earth's shadow,
|
|